User: anonymous   Login
Location: Newark
(34.3481°N, 134.0494°E)
Time: 13:06:16
(UTC+00:00)
Language:

A-11 Canister half - Orbit

View from above orbital plane
View from above orbital plane
View from above satellite
View from above satellite

Ground track
Ground track

The orbit data is extracted from the following two-line orbital elements,

1    53U 60009E   20027.97038351 -.00000004  00000-0  80422-3 0  9994
2    53  47.2783 335.2988 0099504  22.2176 338.2882 12.17237997651336
Epoch (UTC): 27 January 2020 23:17:21
Eccentricity: 0.0099504
inclination: 47.2783°
perigee height: 1525 km
apogee height: 1684 km
right ascension of ascending node: 335.2988°
argument of perigee: 22.2176°
revolutions per day: 12.17237997
mean anomaly at epoch: 338.2882°
orbit number at epoch: 65133

The dashed part of the orbit path shows where the satellite is in the earth's shadow,  

DLR